Tracking 29594 objects as of 21-Sep-2024
HD Live streaming from Space Station
objects crossing your sky now

STARLINK-1849

Track STARLINK-1849 now!
10-day predictions
STARLINK-1849 is classified as:


NORAD ID: 47137
Int'l Code: 2020-088R
Perigee: 554.1 km
Apogee: 554.5 km
Inclination: 53.1 °
Period: 95.6 minutes
Semi major axis: 6925 km
RCS: Unknown
Launch date: November 25, 2020
Source: United States (US)
Launch site: AIR FORCE EASTERN TEST RANGE (AFETR)
Your satellite tracking list
Your tracking list is empty




NASA's NSSDC Master Catalog

Two Line Element Set (TLE):
1 47137U 20088R   24264.17438232  .00005466  00000-0  38540-3 0  9992
2 47137  53.0542 175.6385 0000315  18.4208 341.6792 15.06411310211266
Source of the keplerian elements: AFSPC